"Timestamp","TZ","WindDir_Mean (deg)","WindSpd_Mean (km/h)","WindSpd_Min (km/h)","WindSpd_Max (km/h)","Temp_Mean (deg)","RH_Mean (%)","MSLP_Mean (hPa)","Rain_Acc (mm)","Rain_Intensity (mm/h)","Hail_Acc (hits/cm2)","Hail_Intensity (hits/cm2hr)","Solar_Mean (W/m2)"
2022/12/13 00:00:00.002,n,248,7.56,4.68,9.36,23,84.3,1009.32,0,0,0,0,0.028687
2022/12/13 00:01:00.001,n,241,4.68,2.52,7.92,23,84.3,1009.32,0,0,0,0,0.030441
2022/12/13 00:02:00.002,n,219,6.84,5.76,10.08,22.9,83.9,1009.22,0,0,0,0,0.028687
2022/12/13 00:03:00.002,n,242,8.28,5.4,10.08,22.9,84.3,1009.32,0,0,0,0,0.029602
2022/12/13 00:04:00.001,n,249,8.64,6.84,11.52,22.9,83.8,1009.32,0,0,0,0,0.02697
2022/12/13 00:05:00.002,n,87,1.44,1.08,1.8,22.8,84.5,1009.22,0,0,0,0,0.027809
2022/12/13 00:06:00.010,n,28,4.68,3.6,6.12,22.9,84.3,1009.12,0,0,0,0,0.027809
2022/12/13 00:07:00.012,n,304,2.88,2.52,3.6,22.8,84,1009.22,0,0,0,0,0.029602
2022/12/13 00:08:00.014,n,266,12.6,10.440002,13.68,22.8,84.1,1009.32,0,0,0,0,0.025215
2022/12/13 00:09:00.016,n,268,6.84,2.52,10.8,22.9,84.7,1009.42,0,0,0,0,0.027809
2022/12/13 00:10:00.001,n,170,2.52,0.36,6.48,23,84.7,1009.42,0,0,0,0,0.02697
2022/12/13 00:11:00.002,n,8,1.8,0.36,2.88,23.1,84.6,1009.32,0,0,0,0,0.02697
2022/12/13 00:12:00.001,n,15,1.44,0.72,3.96,23.1,84.1,1009.12,0,0,0,0,0.029602
2022/12/13 00:13:00.002,n,352,1.8,0.72,3.6,23,84.1,1009.02,0,0,0,0,0.02697
2022/12/13 00:14:00.004,n,90,0.72,0,1.44,23,83.9,1009.02,0,0,0,0,0.024376
2022/12/13 00:15:00.006,n,282,1.8,1.44,2.16,22.9,83.6,1009.12,0,0,0,0,0.026093
2022/12/13 00:16:00.014,n,247,7.92,5.4,10.440002,22.9,84,1009.22,0,0,0,0,0.02697
2022/12/13 00:17:00.016,n,250,9,6.12,11.52,23,84,1009.32,0,0,0,0,0.026093
2022/12/13 00:18:00.017,n,255,6.84,4.68,10.440002,23,84.2,1009.32,0,0,0,0,0.025215
2022/12/13 00:19:00.002,n,238,0.72,0.36,1.08,23,84.1,1009.32,0,0,0,0,0.028687
2022/12/13 00:20:00.002,n,342,0.36,0,1.08,23,83.6,1009.22,0,0,0,0,0.029602
2022/12/13 00:21:00.002,n,273,1.8,1.08,2.16,23,83.7,1009.32,0,0,0,0,0.030441
2022/12/13 00:22:00.002,n,292,1.08,0.72,1.8,22.9,83.6,1009.32,0,0,0,0,0.028687
2022/12/13 00:23:00.002,n,308,4.32,0.36,10.08,22.9,83.8,1009.42,0,0,0,0,0.028687
2022/12/13 00:24:00.004,n,263,11.52,7.2,14.04,23,84.4,1009.62,0,0,0,0,0.024376
2022/12/13 00:25:00.005,n,248,7.56,4.32,11.52,23,84,1009.62,0,0,0,0,0.025215
2022/12/13 00:26:00.008,n,250,6.84,2.52,11.88,23,84.2,1009.62,0,0,0,0,0.02697
2022/12/13 00:27:00.011,n,204,3.96,3.24,4.68,23.1,84.4,1009.52,0,0,0,0,0.025215
2022/12/13 00:28:00.001,n,254,9.36,5.76,10.440002,23.1,83.9,1009.52,0,0.2,0,0,0.028687
2022/12/13 00:29:00.002,n,236,6.84,5.04,9.72,23.1,83.7,1009.62,0.04,2,0,0,0.026093
2022/12/13 00:30:00.005,n,233,4.32,3.96,4.68,23.1,83.8,1009.72,0.09,3.2,0,0,0.027809
2022/12/13 00:31:00.001,n,240,6.48,5.76,6.84,23.1,83.9,1009.82,0.11,1.2,0,0,0.026093
2022/12/13 00:32:00.002,n,267,7.92,6.84,10.08,23.1,83.6,1009.92,0.14,1.3,0,0,0.02697
2022/12/13 00:33:00.004,n,270,11.88,11.16,14.4,23.1,83.4,1010.12,0.14,0.4,0,0,0.027809
2022/12/13 00:34:00.006,n,257,16.2,15.12,19.08,23.1,83.1,1010.32,0.14,0,0,0,0.026093
2022/12/13 00:35:00.010,n,264,14.4,10.440002,16.2,23,82.4,1010.42,0.14,0,0,0,0.027809
2022/12/13 00:36:00.013,n,264,8.28,7.2,12.6,23,83,1010.42,0.14,0,0,0,0.025215
2022/12/13 00:37:00.001,n,259,6.84,5.04,8.64,23,83.3,1010.32,0.14,0,0,0,0.023499
2022/12/13 00:38:00.003,n,187,3.24,2.52,6.84,22.9,82.8,1010.12,0.19,2.4,0,0,0.025215
2022/12/13 00:39:00.007,n,125,2.16,1.44,3.24,22.8,83,1010.02,0.3,5.5,0,0,0.024376
2022/12/13 00:40:00.001,n,278,3.6,2.52,5.4,22.8,83.1,1009.92,0.35,4,0,0,0.024376
2022/12/13 00:41:00.001,n,0,2.16,1.08,3.24,22.8,83.9,1009.82,0.38,1.7,0,0,0.022583
2022/12/13 00:42:00.005,n,75,0.72,0.72,1.08,22.8,83.3,1009.82,0.4,1,0,0,0.022583
2022/12/13 00:43:00.010,n,220,3.6,1.8,7.2,22.8,83.3,1009.82,0.49,5.1,0,0,0.023499
2022/12/13 00:44:00.014,n,209,4.68,4.32,4.68,22.8,83.5,1009.82,0.54,4,0,0,0.020866
2022/12/13 00:45:00.002,n,212,5.4,5.04,5.76,22.7,83.3,1009.82,0.55,0.5,0,0,0.01915
2022/12/13 00:46:00.001,n,201,5.04,4.68,5.04,22.7,83,1009.92,0.55,0,0,0,0.01915
2022/12/13 00:47:00.001,n,166,6.48,6.12,7.2,22.6,82.8,1009.92,0.55,0,0,0,0.018272
2022/12/13 00:48:00.001,n,172,7.56,7.2,7.92,22.5,82.7,1009.92,0.55,0,0,0,0.016518
2022/12/13 00:49:00.006,n,112,2.52,0.36,3.96,22.5,83.1,1009.92,0.55,0,0,0,0.025215
2022/12/13 00:50:00.005,n,97,3.24,2.88,3.96,22.5,83.4,1009.82,0.55,0,0,0,0.022583
2022/12/13 00:51:00.001,n,28,1.44,0.36,2.52,22.5,83.8,1009.72,0.55,0,0,0,0.028687
2022/12/13 00:52:00.003,n,28,5.4,4.68,5.76,22.5,83.5,1009.62,0.55,0,0,0,0.023499
2022/12/13 00:53:00.012,n,9,8.28,7.2,11.88,22.5,83.5,1009.62,0.55,0,0,0,0.02697
2022/12/13 00:54:00.014,n,25,7.56,6.48,10.440002,22.5,83.5,1009.62,0.55,0,0,0,0.030441
2022/12/13 00:55:00.001,n,27,4.68,4.32,5.4,22.5,83.9,1009.62,0.55,0,0,0,0.032196
2022/12/13 00:56:00.005,n,0,9.72,7.92,14.04,22.5,84.1,1009.52,0.55,0,0,0,0.033035
2022/12/13 00:57:00.003,n,24,5.76,4.68,7.56,22.4,83.6,1009.52,0.55,0,0,0,0.03479
2022/12/13 00:58:00.002,n,18,5.04,3.6,6.48,22.4,83.7,1009.62,0.55,0,0,0,0.037384
2022/12/13 00:59:00.001,n,357,6.84,6.12,7.56,22.4,84.1,1009.72,0.55,0,0,0,0.037384
2022/12/13 01:00:00.010,n,44,1.44,1.08,2.16,22.4,84.1,1009.82,0.55,0,0,0,0.037384
2022/12/13 01:01:00.006,n,287,3.6,2.52,4.32,22.5,84.2,1009.92,0.55,0,0,0,0.040894
2022/12/13 01:02:00.014,n,213,3.96,3.24,4.68,22.5,84,1009.92,0.55,0,0,0,0.039978
2022/12/13 01:03:00.002,n,191,2.16,1.44,3.96,22.5,83.9,1010.02,0.55,0,0,0,0.043488
2022/12/13 01:04:00.005,n,227,3.6,2.16,5.04,22.5,83.7,1010.02,0.55,0,0,0,0.039978
2022/12/13 01:05:00.002,n,230,5.04,4.68,5.4,22.4,83.7,1009.92,0.55,0,0,0,0.04612
2022/12/13 01:06:00.017,n,165,2.88,0.72,3.96,22.4,83.8,1009.82,0.55,0,0,0,0.043488
2022/12/13 01:07:00.009,n,159,6.12,5.76,6.48,22.4,83.8,1009.82,0.55,0,0,0,0.045204
2022/12/13 01:08:00.010,n,156,5.04,5.04,5.4,22.4,83.9,1009.82,0.55,0,0,0,0.04612
2022/12/13 01:09:00.020,n,157,7.2,6.84,7.56,22.4,83.8,1009.82,0.55,0,0,0,0.043488
2022/12/13 01:10:00.011,n,151,6.84,5.4,9,22.4,83.1,1009.82,0.55,0,0,0,0.045204
2022/12/13 01:11:00.014,n,135,6.12,5.4,6.48,22.3,83.5,1009.82,0.55,0,0,0,0.045204
2022/12/13 01:12:00.014,n,135,4.32,3.96,5.04,22.2,83.6,1009.72,0.55,0,0,0,0.046997
2022/12/13 01:13:00.001,n,143,5.76,5.04,6.12,22.2,83.2,1009.72,0.55,0,0,0,0.05043
2022/12/13 01:14:00.001,n,151,4.68,3.6,5.04,22.1,83.5,1009.72,0.55,0,0,0,0.025215
2022/12/13 01:15:00.001,n,87,2.16,2.16,2.88,22,83.8,1009.62,0.55,0,0,0,0.030441
2022/12/13 01:16:00.010,n,102,1.08,0.72,2.16,22,84.1,1009.62,0.55,0,0,0,0.029564
2022/12/13 01:17:00.001,n,52,1.8,1.44,2.16,22.1,84.2,1009.62,0.55,0,0,0,0.028725
2022/12/13 01:18:00.001,n,65,2.16,1.8,2.52,22.1,84.3,1009.62,0.55,0,0,0,0.027847
2022/12/13 01:19:00.009,n,83,1.08,0.72,1.44,22.1,84.5,1009.62,0.55,0,0,0,0.031319
2022/12/13 01:20:00.014,n,44,0.72,0.36,1.44,22.1,84.7,1009.62,0.55,0,0,0,0.02697
2022/12/13 01:21:00.025,n,227,3.24,1.44,3.96,22.2,84.5,1009.62,0.55,0,0,0,0.032196
2022/12/13 01:22:00.002,n,224,2.88,2.16,3.6,22.1,84.5,1009.62,0.55,0,0,0,0.030441
2022/12/13 01:23:00.001,n,231,3.24,3.24,3.6,22.2,84.5,1009.62,0.55,0,0,0,0.032196
2022/12/13 01:24:00.001,n,236,4.32,3.6,5.04,22.2,84.5,1009.62,0.55,0,0,0,0.033073
2022/12/13 01:25:00.002,n,221,4.32,4.32,4.32,22.2,84.3,1009.62,0.55,0,0,0,0.035667
2022/12/13 01:26:00.003,n,156,2.52,1.8,2.52,22.2,84.7,1009.52,0.55,0,0,0,0.033913
2022/12/13 01:27:00.010,n,159,2.88,1.8,3.24,22.2,84.5,1009.52,0.55,0,0,0,0.03479
2022/12/13 01:28:00.014,n,160,2.52,1.8,2.88,22.2,84.4,1009.42,0.55,0,0,0,0.039139
2022/12/13 01:29:00.026,n,98,1.8,1.44,2.52,22.2,84.4,1009.42,0.55,0,0,0,0.0383
2022/12/13 01:30:00.002,n,89,1.08,0.36,1.44,22.2,84.5,1009.42,0.55,0,0,0,0.037422
2022/12/13 01:31:00.002,n,40,3.24,1.08,5.04,22.2,84.7,1009.32,0.55,0,0,0,0.039139
2022/12/13 01:32:00.002,n,92,5.4,5.04,5.76,22.3,84.7,1009.32,0.55,0,0,0,0.039139
2022/12/13 01:33:00.001,n,23,3.24,2.52,3.96,22.3,84.5,1009.32,0.55,0,0,0,0.040016
2022/12/13 01:34:00.002,n,81,2.88,2.16,3.96,22.3,84.4,1009.32,0.55,0,0,0,0.041733
2022/12/13 01:35:00.005,n,6,2.52,1.44,3.6,22.2,84.2,1009.22,0.55,0,0,0,0.041733
2022/12/13 01:36:00.010,n,130,2.16,1.08,2.88,22.2,84.3,1009.22,0.55,0,0,0,0.04261
2022/12/13 01:37:00.019,n,140,2.16,0.72,3.24,22.2,84.4,1009.32,0.55,0,0,0,0.040894
2022/12/13 01:38:00.013,n,147,5.4,5.04,5.4,22.2,84.4,1009.32,0.55,0,0,0,0.041733
2022/12/13 01:39:00.016,n,111,5.4,4.68,5.76,22.1,84.3,1009.32,0.55,0,0,0,0.04612
2022/12/13 01:40:00.001,n,128,4.68,3.6,5.04,22.1,84.3,1009.22,0.55,0,0,0,0.041733
2022/12/13 01:41:00.001,n,104,1.44,1.08,2.16,22.1,84.4,1009.22,0.55,0,0,0,0.04612
2022/12/13 01:42:00.004,n,8,2.52,2.16,3.6,22.1,84.8,1009.22,0.55,0,0,0,0.046959
2022/12/13 01:43:00.001,n,50,3.24,1.8,4.68,22.1,84.5,1009.22,0.55,0,0,0,0.048714
2022/12/13 01:44:00.002,n,11,7.2,5.76,9.72,22,84.2,1009.22,0.55,0,0,0,0.045242
2022/12/13 01:45:00.011,n,140,2.16,1.44,2.16,22,84.4,1009.22,0.55,0,0,0,0.04261
2022/12/13 01:46:00.009,n,354,4.32,3.6,4.68,22,84.6,1009.22,0.55,0,0,0,0.046959
2022/12/13 01:47:00.006,n,16,3.6,3.24,3.96,22,84.6,1009.22,0.55,0,0,0,0.046959
2022/12/13 01:48:00.004,n,197,2.52,2.16,3.24,22,84.8,1009.22,0.55,0,0,0,0.04612
2022/12/13 01:49:00.001,n,6,3.96,3.24,4.68,22,84.9,1009.22,0.55,0,0,0,0.04612
2022/12/13 01:50:00.002,n,106,2.16,1.44,2.88,22,84.8,1009.22,0.55,0,0,0,0.049591
2022/12/13 01:51:00.001,n,315,2.52,2.16,3.24,22,84.9,1009.12,0.55,0,0,0,0.048714
2022/12/13 01:52:00.012,n,272,2.52,1.8,2.88,22.1,84.9,1009.12,0.55,0,0,0,0.050468
2022/12/13 01:53:00.008,n,307,2.88,2.52,3.24,22.1,85,1009.12,0.55,0,0,0,0.049591
2022/12/13 01:54:00.007,n,20,2.52,2.16,2.88,22.1,85,1009.12,0.55,0,0,0,0.050468
2022/12/13 01:55:00.005,n,42,2.52,2.16,3.6,22.1,84.9,1009.12,0.55,0,0,0,0.047836
2022/12/13 01:56:00.014,n,72,4.68,3.96,5.4,22.1,84.9,1009.12,0.55,0,0,0,0.048714
2022/12/13 01:57:00.009,n,72,4.68,2.16,5.4,22.1,84.8,1009.12,0.55,0,0,0,0.052185
2022/12/13 01:58:00.002,n,94,3.24,2.88,3.6,22.1,84.8,1009.12,0.55,0,0,0,0.04612
2022/12/13 01:59:00.001,n,2,2.88,2.16,3.24,22.1,84.7,1009.02,0.55,0,0,0,0.047836
2022/12/13 02:00:00.002,n,349,5.76,5.4,6.48,22.1,84.8,1009.02,0.55,0,0,0,0.025253
2022/12/13 02:01:00.002,n,347,4.32,3.96,5.04,22.1,84.5,1009.02,0.55,0,0,0,0.032196
2022/12/13 02:02:00.001,n,79,3.96,3.96,4.32,22.1,84.8,1009.02,0.55,0,0,0,0.033073
2022/12/13 02:03:00.001,n,44,5.04,2.88,6.12,22.1,84.8,1009.02,0.55,0,0,0,0.033073
2022/12/13 02:04:00.015,n,34,4.68,3.6,5.4,22.1,84.7,1009.02,0.55,0,0,0,0.031357
2022/12/13 02:05:00.002,n,36,4.68,3.96,5.4,22.1,84.7,1008.92,0.55,0,0,0,0.036583
2022/12/13 02:06:00.013,n,13,6.84,5.76,7.56,22.1,84.6,1008.92,0.55,0,0,0,0.035667
2022/12/13 02:07:00.001,n,89,3.96,3.6,4.32,22.1,84.7,1008.82,0.55,0,0,0,0.03479
2022/12/13 02:08:00.002,n,85,7.56,6.84,7.92,22.1,84.7,1008.82,0.55,0,0,0,0.036583
2022/12/13 02:09:00.003,n,37,6.48,3.96,9.72,22.1,84.6,1008.72,0.55,0,0,0,0.033073
2022/12/13 02:10:00.001,n,94,4.68,4.32,4.68,22.1,84.7,1008.72,0.55,0,0,0,0.03479
2022/12/13 02:11:00.001,n,97,5.04,5.04,5.4,22.1,84.7,1008.62,0.55,0,0,0,0.035667
2022/12/13 02:12:00.002,n,21,6.84,5.76,7.92,22.1,84.7,1008.62,0.55,0,0,0,0.0383
2022/12/13 02:13:00.010,n,43,9.72,8.64,9.72,22.1,84.8,1008.52,0.55,0,0,0,0.03479
2022/12/13 02:14:00.009,n,13,6.84,5.76,9.72,22.1,85,1008.52,0.55,0,0,0,0.035667
2022/12/13 02:15:00.023,n,37,8.64,6.84,9.72,22.1,85,1008.42,0.55,0,0,0,0.039177
2022/12/13 02:16:00.001,n,39,6.48,5.4,8.28,22.1,85,1008.32,0.55,0,0,0,0.037422
2022/12/13 02:17:00.001,n,13,7.2,6.12,9.72,22.2,85,1008.32,0.55,0,0,0,0.035667
2022/12/13 02:18:00.001,n,110,4.68,3.6,5.76,22.2,85.1,1008.22,0.55,0,0,0,0.036583
2022/12/13 02:19:00.002,n,18,6.12,5.4,8.64,22.2,85.2,1008.22,0.55,0,0,0,0.036583
2022/12/13 02:20:00.005,n,36,5.04,4.32,5.4,22.2,85.1,1008.22,0.55,0,0,0,0.039177
2022/12/13 02:21:00.013,n,15,9.72,7.92,11.16,22.2,85.2,1008.12,0.55,0,0,0,0.039177
2022/12/13 02:22:00.015,n,34,6.84,5.76,8.64,22.2,85.2,1008.02,0.55,0,0,0,0.037422
2022/12/13 02:23:00.001,n,33,10.08,8.64,12.6,22.2,85.3,1008.02,0.55,0,0,0,0.0383
2022/12/13 02:24:00.020,n,16,10.440002,9.36,11.88,22.2,85.4,1007.92,0.55,0,0,0,0.0383
2022/12/13 02:25:00.002,n,15,12.6,9.72,15.48,22.3,85.5,1007.82,0.55,0,0,0,0.0383
2022/12/13 02:26:00.010,n,27,11.16,10.08,12.24,22.3,85.5,1007.82,0.55,0,0,0,0.039177
2022/12/13 02:27:00.005,n,36,9,6.84,11.52,22.3,85.5,1007.82,0.55,0,0,0,0.03479
2022/12/13 02:28:00.006,n,23,15.12,13.68,19.44,22.3,85.5,1007.72,0.55,0,0,0,0.040016
2022/12/13 02:29:00.006,n,17,10.08,9.36,12.96,22.3,85.6,1007.62,0.55,0,0,0,0.037422
2022/12/13 02:30:00.001,n,21,13.32,11.88,16.2,22.3,85.6,1007.62,0.55,0,0,0,0.039177
2022/12/13 02:31:00.001,n,11,12.24,10.08,15.48,22.3,85.6,1007.42,0.55,0,0,0,0.036583
2022/12/13 02:32:00.007,n,34,13.68,11.52,15.48,22.3,85.7,1007.32,0.55,0,0,0,0.0383
2022/12/13 02:33:00.006,n,30,16.919998,7.2,21.96,22.3,85.6,1007.22,0.55,0,0,0,0.039177
2022/12/13 02:34:00.005,n,32,12.96,10.8,14.76,22.3,85.5,1007.32,0.55,0,0,0,0.039177
2022/12/13 02:35:00.002,n,29,16.919998,11.88,19.08,22.3,85.5,1007.32,0.55,0,0,0,0.033951
2022/12/13 02:36:00.003,n,1,7.56,3.24,12.24,22.3,85.5,1007.32,0.55,0,0,0,0.03479
2022/12/13 02:37:00.002,n,30,9.72,2.52,15.48,22.3,85.5,1007.32,0.55,0,0,0,0.035667
2022/12/13 02:38:00.005,n,25,9.72,7.92,10.8,22.3,85.4,1007.32,0.55,0,0,0,0.035667
2022/12/13 02:39:00.002,n,44,10.08,9,12.24,22.3,85.4,1007.32,0.55,0,0,0,0.033073
2022/12/13 02:40:00.004,n,23,11.16,9.72,14.4,22.3,85.4,1007.42,0.55,0,0,0,0.031357
2022/12/13 02:41:00.012,n,27,13.68,12.96,14.4,22.2,85.4,1007.42,0.55,0,0,0,0.031357
2022/12/13 02:42:00.013,n,23,5.76,4.68,6.84,22.3,85.4,1007.42,0.55,0,0,0,0.03479
2022/12/13 02:43:00.002,n,32,12.24,11.16,15.12,22.3,85.4,1007.52,0.55,0,0,0,0.031357
2022/12/13 02:44:00.012,n,21,7.2,6.48,12.24,22.3,85.3,1007.62,0.55,0,0,0,0.029602
2022/12/13 02:45:00.001,n,347,14.04,11.16,16.919998,22.3,85.5,1007.72,0.55,0,0,0,0.033073
2022/12/13 02:46:00.001,n,348,11.88,9.36,14.76,22.3,85.6,1007.92,0.55,0,0,0,0.032196
2022/12/13 02:47:00.005,n,330,7.2,5.4,13.68,22.3,85.4,1008.12,0.55,0,0,0,0.031357
2022/12/13 02:48:00.012,n,272,6.48,0.72,9,22.4,85.7,1008.22,0.55,0,0,0,0.027847
2022/12/13 02:49:00.005,n,256,9,5.04,15.48,22.4,85.6,1008.22,0.55,0,0,0,0.031357
2022/12/13 02:50:00.014,n,234,5.4,3.24,9,22.5,85.6,1008.32,0.55,0,0,0,0.027008
2022/12/13 02:51:00.003,n,267,11.16,7.92,13.68,22.5,85.5,1008.32,0.55,0,0,0,0.028725
2022/12/13 02:52:00.001,n,275,7.92,2.16,14.76,22.5,85.4,1008.32,0.55,0,0,0,0.028725
2022/12/13 02:53:00.002,n,223,3.6,2.16,5.76,22.6,85.4,1008.32,0.55,0,0,0,0.025253
2022/12/13 02:54:00.001,n,240,8.64,6.84,12.96,22.6,85.1,1008.32,0.55,0,0,0,0.028725
2022/12/13 02:55:00.001,n,220,5.76,3.6,8.64,22.5,85,1008.32,0.55,0,0,0,0.030479
2022/12/13 02:56:00.009,n,241,7.2,6.12,9,22.5,85,1008.32,0.55,0,0,0,0.027847
2022/12/13 02:57:00.003,n,236,3.96,2.16,6.48,22.5,85.1,1008.42,0.55,0,0,0,0.026131
2022/12/13 02:58:00.016,n,249,7.56,5.76,11.88,22.5,85.3,1008.42,0.55,0,0,0,0.026131
2022/12/13 02:59:00.018,n,249,6.84,2.52,9,22.5,85.3,1008.42,0.55,0,0,0,0.026131
2022/12/13 03:00:00.013,n,235,6.12,2.88,8.28,22.5,85.4,1008.52,0.55,0,0,0,0.029602
2022/12/13 03:01:00.002,n,280,9.36,6.12,11.52,22.5,85.2,1008.52,0.55,0,0,0,0.026131
2022/12/13 03:02:00.007,n,264,6.48,2.16,10.08,22.6,85.2,1008.52,0.55,0,0,0,0.027008
2022/12/13 03:03:00.016,n,310,6.12,5.04,6.48,22.5,85.1,1008.52,0.55,0,0,0,0.025253
2022/12/13 03:04:00.002,n,276,5.76,3.24,7.92,22.5,85.2,1008.52,0.55,0,0,0,0.025253
2022/12/13 03:05:00.002,n,293,6.12,2.16,9,22.5,85.2,1008.52,0.55,0,0,0,0.031357
2022/12/13 03:06:00.008,n,257,9,5.04,13.32,22.5,85.2,1008.52,0.55,0,0,0,0.027847
2022/12/13 03:07:00.001,n,278,6.84,2.88,13.32,22.5,85.1,1008.42,0.55,0,0,0,0.027847
2022/12/13 03:08:00.008,n,253,8.28,4.32,14.4,22.5,85.1,1008.42,0.55,0,0,0,0.030479
2022/12/13 03:09:00.016,n,317,5.76,2.16,11.52,22.5,85.2,1008.42,0.55,0,0,0,0.027847
2022/12/13 03:10:00.002,n,173,2.16,0.36,5.76,22.5,85.2,1008.42,0.55,0,0,0,0.028725
2022/12/13 03:11:00.002,n,271,4.32,0.36,6.84,22.5,85.2,1008.42,0.55,0,0,0,0.030479
2022/12/13 03:12:00.002,n,277,6.12,2.88,9,22.5,85.1,1008.32,0.55,0,0,0,0.030479
2022/12/13 03:13:00.002,n,258,5.76,2.52,7.56,22.5,85.1,1008.32,0.55,0,0,0,0.030479
2022/12/13 03:14:00.021,n,234,4.68,2.88,6.12,22.4,85,1008.32,0.55,0,0,0,0.030479
2022/12/13 03:15:00.006,n,187,4.68,1.08,11.52,22.4,85,1008.32,0.55,0,0,0,0.028725
2022/12/13 03:16:00.006,n,336,1.44,0.36,2.52,22.4,85,1008.22,0.55,0,0,0,0.029602
2022/12/13 03:17:00.004,n,22,2.88,0.36,6.84,22.4,85.1,1008.22,0.55,0,0,0,0.031357
2022/12/13 03:18:00.017,n,0,1.8,0.72,6.48,22.3,85.1,1008.22,0.55,0,0,0,0.029602
2022/12/13 03:19:00.003,n,352,2.52,1.44,5.04,22.3,85.2,1008.12,0.55,0,0,0,0.026131
2022/12/13 03:20:00.005,n,2,5.4,4.32,7.2,22.3,85.1,1008.12,0.55,0,0,0,0.032196
2022/12/13 03:21:00.003,n,13,5.76,4.68,10.440002,22.3,85.1,1008.12,0.55,0,0,0,0.033951
2022/12/13 03:22:00.002,n,8,5.4,1.44,9,22.2,85.2,1008.12,0.55,0,0,0,0.031357
2022/12/13 03:23:00.002,n,346,3.96,2.16,10.08,22.3,85.4,1008.12,0.55,0,0,0,0.032196
2022/12/13 03:24:00.002,n,344,3.6,3.24,3.96,22.3,85.4,1008.12,0.55,0,0,0,0.033073
2022/12/13 03:25:00.005,n,223,5.04,4.32,9,22.3,85.4,1008.12,0.55,0,0,0,0.03479
2022/12/13 03:26:00.001,n,253,5.76,3.6,9,22.3,85.5,1008.12,0.55,0,0,0,0.033073
2022/12/13 03:27:00.003,n,195,2.52,2.16,2.52,22.3,85.4,1008.22,0.55,0,0,0,0.031357
2022/12/13 03:28:00.002,n,213,4.32,1.44,6.84,22.3,85.4,1008.22,0.55,0,0,0,0.029602
2022/12/13 03:29:00.001,n,231,5.76,4.32,6.48,22.3,85.3,1008.22,0.55,0,0,0,0.032196
2022/12/13 03:30:00.001,n,253,6.84,2.88,9,22.3,85.3,1008.22,0.55,0,0,0,0.032196
2022/12/13 03:31:00.002,n,273,9.36,8.28,11.52,22.3,85.3,1008.22,0.55,0,0,0,0.030479
2022/12/13 03:32:00.002,n,244,5.4,3.96,6.12,22.3,85.4,1008.22,0.55,0,0,0,0.03479
2022/12/13 03:33:00.002,n,256,8.28,7.92,9.36,22.3,85.5,1008.22,0.55,0,0,0,0.032196
2022/12/13 03:34:00.012,n,263,4.68,1.44,9.72,22.3,85.5,1008.22,0.55,0,0,0,0.032196
2022/12/13 03:35:00.010,n,242,6.48,4.32,11.16,22.3,85.5,1008.22,0.55,0,0,0,0.032196
2022/12/13 03:36:00.018,n,211,2.88,2.16,3.6,22.4,85.4,1008.22,0.55,0,0,0,0.033951
2022/12/13 03:37:00.001,n,256,7.56,5.4,11.16,22.4,85.5,1008.22,0.55,0,0,0,0.032196
2022/12/13 03:38:00.005,n,263,6.48,3.96,9.72,22.4,85.5,1008.22,0.55,0,0,0,0.036583
2022/12/13 03:39:00.008,n,253,3.96,0,8.64,22.4,85.6,1008.22,0.55,0,0,0,0.033073
2022/12/13 03:40:00.002,n,254,7.56,3.6,12.24,22.4,85.4,1008.22,0.55,0,0,0,0.033073
2022/12/13 03:41:00.005,n,259,9.36,7.2,11.52,22.4,85.4,1008.22,0.55,0,0,0,0.03479
2022/12/13 03:42:00.005,n,294,3.6,0.36,6.12,22.4,85.4,1008.22,0.55,0,0,0,0.036583
2022/12/13 03:43:00.005,n,258,5.4,1.8,9.72,22.4,85.5,1008.22,0.55,0,0,0,0.033073
2022/12/13 03:44:00.007,n,234,6.84,4.68,8.64,22.4,85.5,1008.22,0.55,0,0,0,0.031357
2022/12/13 03:45:00.010,n,213,5.4,1.44,12.6,22.4,85.4,1008.22,0.55,0,0,0,0.030479
2022/12/13 03:46:00.001,n,314,2.16,1.08,3.24,22.4,85.5,1008.22,0.55,0,0,0,0.027847
2022/12/13 03:47:00.002,n,255,7.56,3.96,11.88,22.4,85.4,1008.22,0.55,0,0,0,0.024414
2022/12/13 03:48:00.001,n,268,9,4.68,13.32,22.4,85.4,1008.22,0.55,0,0,0,0.025215
2022/12/13 03:49:00.001,n,299,6.48,5.04,7.92,22.4,85.5,1008.22,0.55,0,0,0,0.031319
2022/12/13 03:50:00.004,n,212,0.72,0.36,1.8,22.4,85.4,1008.22,0.55,0,0,0,0.024338
2022/12/13 03:51:00.007,n,220,4.32,1.08,10.8,22.4,85.4,1008.22,0.55,0,0,0,0.024338
2022/12/13 03:52:00.013,n,272,1.8,1.8,2.16,22.4,85.4,1008.22,0.55,0,0,0,0.017395
2022/12/13 03:53:00.005,n,214,2.52,1.44,5.04,22.4,85.4,1008.22,0.55,0,0,0,0.020866
2022/12/13 03:54:00.010,n,257,6.48,4.32,9.36,22.4,85.6,1008.32,0.55,0,0,0,0.026054
2022/12/13 03:55:00.002,n,241,5.76,3.24,6.48,22.4,85.3,1008.32,0.55,0,0,0,0.026054
2022/12/13 03:56:00.001,n,240,7.2,5.4,9,22.4,85.6,1008.32,0.55,0,0,0,0.026054
2022/12/13 03:57:00.002,n,256,8.28,6.84,11.88,22.4,85.6,1008.42,0.55,0,0,0,0.024338
2022/12/13 03:58:00.006,n,252,8.64,6.48,12.6,22.4,85.6,1008.42,0.55,0,0,0,0.021706
2022/12/13 03:59:00.009,n,271,6.12,4.32,7.56,22.4,85.6,1008.42,0.55,0,0,0,0.019112
2022/12/13 04:00:00.001,n,241,6.84,4.32,10.08,22.4,85.4,1008.42,0.55,0,0,0,0.021706
2022/12/13 04:01:00.003,n,279,5.04,2.52,7.92,22.4,85.5,1008.42,0.55,0,0,0,0.021782
2022/12/13 04:02:00.003,n,250,6.48,4.32,10.08,22.4,85.6,1008.32,0.55,0,0,0,0.025253
2022/12/13 04:03:00.005,n,253,7.56,3.6,10.08,22.4,85.3,1008.32,0.55,0,0,0,0.025253
2022/12/13 04:04:00.001,n,165,2.16,1.8,3.96,22.3,85.2,1008.32,0.55,0,0,0,0.027847
2022/12/13 04:05:00.001,n,182,2.52,1.8,5.4,22.3,85.2,1008.32,0.55,0,0,0,0.024376
2022/12/13 04:06:00.003,n,213,3.24,2.52,6.48,22.3,85.3,1008.32,0.55,0,0,0,0.024376
2022/12/13 04:07:00.007,n,230,2.88,1.8,6.12,22.3,85.3,1008.32,0.55,0,0,0,0.020905
2022/12/13 04:08:00.010,n,213,4.32,3.96,4.68,22.3,85.4,1008.32,0.55,0,0,0,0.021782
2022/12/13 04:09:00.010,n,213,2.52,1.44,6.12,22.2,85.3,1008.32,0.55,0,0,0,0.018272
2022/12/13 04:10:00.013,n,128,1.44,0.72,2.16,22.2,85.3,1008.32,0.55,0,0,0,0.018272
2022/12/13 04:11:00.015,n,56,0.72,0.36,4.68,22.2,85.5,1008.32,0.55,0,0,0,0.030479
2022/12/13 04:12:00.015,n,142,1.08,0.72,1.44,22.2,85.5,1008.32,0.55,0,0,0,0.033073
2022/12/13 04:13:00.004,n,209,1.44,0.36,4.68,22.2,85.5,1008.22,0.55,0,0,0,0.034828
2022/12/13 04:14:00.001,n,206,0.72,0,1.08,22.2,85.5,1008.22,0.55,0,0,0,0.033951
2022/12/13 04:15:00.002,n,262,1.08,0.72,1.08,22.2,85.4,1008.22,0.55,0,0,0,0.0383
2022/12/13 04:16:00.002,n,30,1.44,1.44,1.8,22.2,85.4,1008.22,0.55,0,0,0,0.0383
2022/12/13 04:17:00.004,n,307,0.72,0.36,1.08,22.2,85.4,1008.22,0.55,0,0,0,0.0383
2022/12/13 04:18:00.008,n,27,1.8,0.36,6.48,22.2,85.5,1008.32,0.55,0,0,0,0.041771
2022/12/13 04:19:00.008,n,45,1.08,0.36,1.8,22.2,85.6,1008.32,0.55,0,0,0,0.048752
2022/12/13 04:20:00.011,n,137,0.72,0.36,1.08,22.3,85.7,1008.32,0.55,0,0,0,0.054817
2022/12/13 04:21:00.014,n,67,1.08,0,4.32,22.3,85.6,1008.32,0.55,0,0,0,0.065269
2022/12/13 04:22:00.002,n,218,2.52,2.16,2.88,22.3,85.5,1008.32,0.55,0,0,0,0.079155
2022/12/13 04:23:00.001,n,218,3.24,2.52,6.48,22.3,85.5,1008.32,0.55,0,0,0,0.097466
2022/12/13 04:24:00.002,n,211,2.88,2.52,2.88,22.3,85.6,1008.32,0.55,0,0,0,0.126991
2022/12/13 04:25:00.001,n,208,3.6,2.52,7.2,22.3,85.5,1008.32,0.55,0,0,0,0.15049
2022/12/13 04:26:00.002,n,146,2.88,2.52,3.24,22.3,85.5,1008.32,0.55,0,0,0,0.191345
2022/12/13 04:27:00.009,n,151,3.96,2.88,7.92,22.2,85.4,1008.32,0.55,0,0,0,0.240021
2022/12/13 04:28:00.011,n,150,3.24,3.24,3.24,22.2,85.5,1008.32,0.55,0,0,0,0.308609
2022/12/13 04:29:00.013,n,186,3.96,2.52,7.92,22.2,85.5,1008.32,0.55,0,0,0,0.397186
2022/12/13 04:30:00.014,n,150,3.96,3.24,8.28,22.2,85.4,1008.42,0.55,0,0,0,0.525322
2022/12/13 04:31:00.001,n,152,4.32,3.96,9.36,22.2,85.4,1008.42,0.55,0,0,0,0.661163
2022/12/13 04:32:00.001,n,197,2.52,2.16,2.88,22.2,85.5,1008.52,0.55,0,0,0,0.816879
2022/12/13 04:33:00.005,n,177,5.4,3.24,7.92,22.2,85.5,1008.52,0.55,0,0,0,0.98114
2022/12/13 04:34:00.001,n,211,3.24,2.88,4.68,22.2,85.5,1008.52,0.55,0,0,0,1.183434
2022/12/13 04:35:00.001,n,189,6.12,2.88,9.36,22.2,85.5,1008.52,0.55,0,0,0,1.462593
2022/12/13 04:36:00.004,n,183,5.4,3.6,9,22.2,85.5,1008.42,0.55,0,0,0,1.69548
2022/12/13 04:37:00.009,n,179,3.6,2.16,7.56,22.2,85.5,1008.42,0.55,0,0,0,2.314835
2022/12/13 04:38:00.013,n,186,5.76,2.88,9.36,22.2,85.4,1008.42,0.55,0,0,0,3.005943
2022/12/13 04:39:00.006,n,177,5.4,4.32,7.2,22.2,85.5,1008.42,0.55,0,0,0,3.211022
2022/12/13 04:40:00.001,n,162,3.6,3.24,4.32,22.2,85.5,1008.42,0.55,0,0,0,3.260956
2022/12/13 04:41:00.001,n,158,6.48,5.4,10.440002,22.2,85.4,1008.42,0.55,0,0,0,3.293686
2022/12/13 04:42:00.001,n,159,9.36,4.68,10.08,22.2,85.4,1008.42,0.55,0,0,0,3.121452
2022/12/13 04:43:00.002,n,206,2.52,2.16,3.24,22.2,85.4,1008.52,0.55,0,0,0,3.142128
2022/12/13 04:44:00.002,n,183,5.04,2.88,8.28,22.2,85.5,1008.52,0.55,0,0,0,3.468857
2022/12/13 04:45:00.005,n,161,4.68,2.52,7.56,22.2,85.6,1008.52,0.55,0,0,0,3.659592